Regional Weather Roundup
Issued by NWS Charleston, WV

Home | Current Version | Previous Version | Graphics & Text | Print | Product List | Glossary On
Versions: 1 2 3 4 5 6 7 8 9 10 11 12 13 14 15 16 17 18 19 20 21 22 23 24 25 26 27 28 29 30 31 32 33 34 35 36 37 38 39 40 41 42 43 44 45
000
ASUS41 KRLX 222110
RWRRLX
West Virginia Regional Weather Roundup
National Weather Service Charleston WV
500 PM EDT SUN OCT 22 2017

Note: "fair" indicates few or no clouds below 12,000 feet with no
significant weather and/or obstructions to visibility.

WVZ003-222200-
Northern Panhandle of West Virginia

CITY           SKY/WX    TMP DP  RH WIND       PRES   REMARKS
WHEELING       CLOUDY    74  46  36 S7        30.18F
$$

WVZ009-222200-
Northwest West Virginia

CITY           SKY/WX    TMP DP  RH WIND       PRES   REMARKS
PARKERSBURG    MOSUNNY   76  49  38 SE3       30.19F
$$

WVZ006-222200-
Western West Virginia

CITY           SKY/WX    TMP DP  RH WIND       PRES   REMARKS
HUNTINGTON     CLOUDY    75  48  38 S5        30.16S
$$

WVZ015-222200-
West Central West Virginia

CITY           SKY/WX    TMP DP  RH WIND       PRES   REMARKS
CHARLESTON     CLOUDY    77  48  35 VRB3      30.16F
$$

WVZ022-031-222200-
North Central West Virginia

CITY           SKY/WX    TMP DP  RH WIND       PRES   REMARKS
CLARKSBURG     SUNNY     79  44  28 CALM      30.18F
MORGANTOWN     CLOUDY    79  46  31 S6        30.20F
$$

WVZ025-035-042-045-222200-
Southern West Virginia

CITY           SKY/WX    TMP DP  RH WIND       PRES   REMARKS
BECKLEY        MOSUNNY   70  43  37 SE12G21   30.24F
LOGAN            N/A     75  48  38 CALM      30.18S
BLUEFIELD      CLOUDY    67  40  37 SE10G20   30.27F
LEWISBURG      CLOUDY    69  49  48 SE8       30.29S
$$

WVZ047-222200-
Northern Mountains of West Virginia

CITY           SKY/WX    TMP DP  RH WIND       PRES   REMARKS
ELKINS         SUNNY     75  43  31 S7        30.23F
$$

WVZ052-222200-
Eastern Panhandle of West Virginia

CITY           SKY/WX    TMP DP  RH WIND       PRES   REMARKS
MARTINSBURG    SUNNY     73  54  51 SE10      30.27F
PETERSBURG     SUNNY     76  51  41 E10G16    30.22S
$$




USA.gov is the U.S. government's official web portal to all federal, state and local government web resources and services.